Time,TemperatureF,DewpointF,PressureIn,WindDirection,WindDirectionDegrees,WindSpeedMPH,WindSpeedGustMPH,Humidity,HourlyPrecipIn,Conditions,Clouds,dailyrainin,SoftwareType,DateUTC
2013-01-13 00:15:00,42.4,42.0,30.13,West,275,0.0,0.0,99,0.00,,,0.00,weatherlink.com 1.10,2013-01-13 05:15:00,
2013-01-13 00:31:00,42.4,42.0,30.12,West,275,0.0,2.0,99,0.00,,,0.00,weatherlink.com 1.10,2013-01-13 05:31:00,
2013-01-13 00:46:00,42.1,42.0,30.11,West,275,0.0,0.0,99,0.00,,,0.00,weatherlink.com 1.10,2013-01-13 05:46:00,
2013-01-13 01:01:00,42.1,42.0,30.12,West,275,0.0,2.0,99,0.00,,,0.00,weatherlink.com 1.10,2013-01-13 06:01:00,
2013-01-13 01:16:00,41.9,42.0,30.13,West,275,0.0,0.0,99,0.00,,,0.00,weatherlink.com 1.10,2013-01-13 06:16:00,
2013-01-13 01:32:00,41.7,42.0,30.13,West,275,0.0,0.0,99,0.00,,,0.00,weatherlink.com 1.10,2013-01-13 06:32:00,
2013-01-13 01:46:00,41.6,41.0,30.14,West,275,0.0,0.0,99,0.00,,,0.00,weatherlink.com 1.10,2013-01-13 06:46:00,
2013-01-13 02:01:00,41.8,42.0,30.14,West,275,0.0,0.0,99,0.00,,,0.00,weatherlink.com 1.10,2013-01-13 07:01:00,
2013-01-13 02:16:00,42.0,42.0,30.14,West,275,0.0,0.0,99,0.00,,,0.00,weatherlink.com 1.10,2013-01-13 07:16:00,
2013-01-13 02:32:00,42.2,42.0,30.14,West,275,0.0,0.0,99,0.00,,,0.00,weatherlink.com 1.10,2013-01-13 07:32:00,
2013-01-13 02:47:00,42.4,42.0,30.14,West,275,0.0,0.0,99,0.00,,,0.00,weatherlink.com 1.10,2013-01-13 07:47:00,
2013-01-13 03:01:00,42.4,42.0,30.13,West,275,0.0,2.0,99,0.00,,,0.00,weatherlink.com 1.10,2013-01-13 08:01:00,
2013-01-13 03:17:00,42.5,42.0,30.12,West,275,0.0,0.0,99,0.00,,,0.00,weatherlink.com 1.10,2013-01-13 08:17:00,
2013-01-13 03:32:00,42.6,42.0,30.11,West,275,0.0,1.0,99,0.00,,,0.00,weatherlink.com 1.10,2013-01-13 08:32:00,
2013-01-13 03:46:00,42.8,43.0,30.09,West,275,0.0,0.0,99,0.00,,,0.00,weatherlink.com 1.10,2013-01-13 08:46:00,
2013-01-13 04:03:00,43.3,43.0,30.09,West,275,0.0,2.0,99,0.00,,,0.00,weatherlink.com 1.10,2013-01-13 09:03:00,
2013-01-13 04:17:00,43.0,43.0,30.09,West,275,0.0,2.0,99,0.00,,,0.00,weatherlink.com 1.10,2013-01-13 09:17:00,
2013-01-13 04:32:00,43.1,43.0,30.08,West,275,0.0,0.0,100,0.00,,,0.00,weatherlink.com 1.10,2013-01-13 09:32:00,
2013-01-13 04:46:00,43.2,43.0,30.08,West,275,0.0,0.0,100,0.00,,,0.00,weatherlink.com 1.10,2013-01-13 09:46:00,
2013-01-13 05:03:00,43.3,43.0,30.08,West,275,0.0,0.0,99,0.00,,,0.00,weatherlink.com 1.10,2013-01-13 10:03:00,
2013-01-13 05:17:00,43.6,44.0,30.08,West,275,0.0,0.0,100,0.00,,,0.00,weatherlink.com 1.10,2013-01-13 10:17:00,
2013-01-13 05:32:00,43.7,44.0,30.08,West,275,0.0,0.0,100,0.00,,,0.00,weatherlink.com 1.10,2013-01-13 10:32:00,
2013-01-13 05:47:00,43.6,43.0,30.08,West,275,0.0,0.0,99,0.00,,,0.00,weatherlink.com 1.10,2013-01-13 10:47:00,
2013-01-13 06:02:00,43.8,44.0,30.08,West,275,0.0,2.0,100,0.00,,,0.00,weatherlink.com 1.10,2013-01-13 11:02:00,
2013-01-13 06:17:00,44.1,44.0,30.08,West,275,0.0,0.0,100,0.00,,,0.00,weatherlink.com 1.10,2013-01-13 11:17:00,
2013-01-13 06:33:00,43.9,44.0,30.08,West,275,0.0,1.0,100,0.00,,,0.00,weatherlink.com 1.10,2013-01-13 11:33:00,
2013-01-13 06:48:00,44.0,44.0,30.07,West,275,0.0,0.0,100,0.00,,,0.00,weatherlink.com 1.10,2013-01-13 11:48:00,
2013-01-13 07:04:00,44.4,44.0,30.08,ESE,103,0.0,2.0,100,0.00,,,0.00,weatherlink.com 1.10,2013-01-13 12:04:00,
2013-01-13 07:18:00,44.5,45.0,30.09,ESE,103,0.0,1.0,100,0.00,,,0.00,weatherlink.com 1.10,2013-01-13 12:18:00,
2013-01-13 07:32:00,44.6,45.0,30.10,SW,222,0.0,2.0,100,0.00,,,0.00,weatherlink.com 1.10,2013-01-13 12:32:00,
2013-01-13 07:49:00,44.6,45.0,30.11,SW,222,0.0,2.0,100,0.00,,,0.00,weatherlink.com 1.10,2013-01-13 12:49:00,
2013-01-13 08:03:00,44.5,45.0,30.11,SW,222,0.0,0.0,100,0.00,,,0.00,weatherlink.com 1.10,2013-01-13 13:03:00,
2013-01-13 08:18:00,44.6,45.0,30.11,SW,222,0.0,2.0,100,0.00,,,0.00,weatherlink.com 1.10,2013-01-13 13:18:00,
2013-01-13 08:34:00,44.7,45.0,30.11,SW,222,0.0,3.0,100,0.00,,,0.00,weatherlink.com 1.10,2013-01-13 13:34:00,
2013-01-13 08:49:00,44.6,45.0,30.11,SSW,200,0.0,5.0,100,0.00,,,0.00,weatherlink.com 1.10,2013-01-13 13:49:00,
2013-01-13 09:03:00,44.7,45.0,30.11,South,188,0.0,3.0,100,0.00,,,0.00,weatherlink.com 1.10,2013-01-13 14:03:00,
2013-01-13 09:19:00,44.8,45.0,30.11,SSW,202,0.0,3.0,100,0.00,,,0.00,weatherlink.com 1.10,2013-01-13 14:19:00,
2013-01-13 09:34:00,45.2,45.0,30.11,SSW,202,0.0,4.0,100,0.00,,,0.00,weatherlink.com 1.10,2013-01-13 14:34:00,
2013-01-13 09:48:00,44.8,45.0,30.12,WSW,249,3.0,4.0,100,0.00,,,0.00,weatherlink.com 1.10,2013-01-13 14:48:00,
2013-01-13 10:04:00,44.7,45.0,30.12,WNW,296,0.0,3.0,100,0.00,,,0.00,weatherlink.com 1.10,2013-01-13 15:04:00,
2013-01-13 10:19:00,44.6,45.0,30.13,WNW,296,0.0,2.0,100,0.00,,,0.00,weatherlink.com 1.10,2013-01-13 15:19:00,
2013-01-13 10:33:00,44.3,44.0,30.13,SW,226,0.0,4.0,100,0.00,,,0.00,weatherlink.com 1.10,2013-01-13 15:33:00,
2013-01-13 10:50:00,44.5,45.0,30.12,WSW,242,0.0,3.0,100,0.00,,,0.00,weatherlink.com 1.10,2013-01-13 15:50:00,
2013-01-13 11:04:00,44.6,45.0,30.11,WSW,242,0.0,2.0,100,0.00,,,0.00,weatherlink.com 1.10,2013-01-13 16:04:00,
2013-01-13 11:20:00,44.6,45.0,30.11,WSW,242,3.0,3.0,100,0.00,,,0.00,weatherlink.com 1.10,2013-01-13 16:20:00,
2013-01-13 11:34:00,44.9,45.0,30.10,South,170,0.0,3.0,100,0.00,,,0.00,weatherlink.com 1.10,2013-01-13 16:34:00,
2013-01-13 11:50:00,45.1,45.0,30.09,South,170,0.0,2.0,100,0.00,,,0.00,weatherlink.com 1.10,2013-01-13 16:50:00,
2013-01-13 12:05:00,45.3,45.0,30.08,South,170,0.0,3.0,100,0.00,,,0.00,weatherlink.com 1.10,2013-01-13 17:05:00,
2013-01-13 12:20:00,45.6,46.0,30.07,SSW,210,0.0,3.0,100,0.00,,,0.00,weatherlink.com 1.10,2013-01-13 17:20:00,
2013-01-13 12:35:00,45.6,46.0,30.06,SW,229,0.0,4.0,100,0.00,,,0.00,weatherlink.com 1.10,2013-01-13 17:35:00,
2013-01-13 12:49:00,45.9,46.0,30.06,West,259,3.0,5.0,100,0.00,,,0.00,weatherlink.com 1.10,2013-01-13 17:49:00,
2013-01-13 13:05:00,46.3,46.0,30.05,South,175,0.0,3.0,100,0.00,,,0.00,weatherlink.com 1.10,2013-01-13 18:05:00,
2013-01-13 13:20:00,46.5,47.0,30.05,SSW,198,0.0,3.0,100,0.00,,,0.00,weatherlink.com 1.10,2013-01-13 18:20:00,
2013-01-13 13:36:00,46.7,47.0,30.05,South,186,0.0,3.0,100,0.00,,,0.00,weatherlink.com 1.10,2013-01-13 18:36:00,
2013-01-13 13:50:00,47.0,47.0,30.05,South,180,0.0,2.0,100,0.00,,,0.00,weatherlink.com 1.10,2013-01-13 18:50:00,
2013-01-13 14:05:00,46.9,47.0,30.05,South,173,0.0,4.0,100,0.00,,,0.00,weatherlink.com 1.10,2013-01-13 19:05:00,
2013-01-13 14:21:00,47.2,47.0,30.04,South,190,0.0,4.0,100,0.00,,,0.00,weatherlink.com 1.10,2013-01-13 19:21:00,
2013-01-13 14:36:00,47.3,47.0,30.04,SSW,212,0.0,3.0,100,0.00,,,0.00,weatherlink.com 1.10,2013-01-13 19:36:00,
2013-01-13 14:51:00,47.3,47.0,30.05,SSW,192,2.0,4.0,100,0.00,,,0.00,weatherlink.com 1.10,2013-01-13 19:51:00,
2013-01-13 15:05:00,47.2,47.0,30.03,SSE,163,6.0,8.0,100,0.00,,,0.00,weatherlink.com 1.10,2013-01-13 20:05:00,
2013-01-13 15:21:00,47.0,47.0,30.03,South,178,0.0,5.0,100,0.00,,,0.00,weatherlink.com 1.10,2013-01-13 20:21:00,
2013-01-13 15:36:00,47.2,47.0,30.05,SSW,196,0.0,6.0,100,0.00,,,0.00,weatherlink.com 1.10,2013-01-13 20:36:00,
2013-01-13 15:50:00,47.2,47.0,30.04,SSW,201,0.0,4.0,100,0.00,,,0.00,weatherlink.com 1.10,2013-01-13 20:50:00,
2013-01-13 16:07:00,47.2,47.0,30.05,SW,234,1.0,3.0,100,0.00,,,0.00,weatherlink.com 1.10,2013-01-13 21:07:00,
2013-01-13 16:21:00,47.2,47.0,30.04,South,179,0.0,5.0,100,0.00,,,0.00,weatherlink.com 1.10,2013-01-13 21:21:00,
2013-01-13 16:36:00,47.1,47.0,30.04,SW,227,0.0,6.0,100,0.00,,,0.00,weatherlink.com 1.10,2013-01-13 21:36:00,
2013-01-13 16:52:00,47.0,47.0,30.04,WSW,241,0.0,4.0,100,0.00,,,0.00,weatherlink.com 1.10,2013-01-13 21:52:00,
2013-01-13 17:07:00,47.0,47.0,30.04,SSW,211,1.0,5.0,100,0.00,,,0.00,weatherlink.com 1.10,2013-01-13 22:07:00,
2013-01-13 17:21:00,46.8,47.0,30.05,WSW,243,0.0,6.0,100,0.00,,,0.00,weatherlink.com 1.10,2013-01-13 22:21:00,
2013-01-13 17:36:00,46.7,47.0,30.04,SW,234,0.0,3.0,100,0.00,,,0.00,weatherlink.com 1.10,2013-01-13 22:36:00,
2013-01-13 17:52:00,46.7,47.0,30.04,WSW,239,1.0,4.0,100,0.00,,,0.00,weatherlink.com 1.10,2013-01-13 22:52:00,
2013-01-13 18:07:00,46.6,47.0,30.04,WSW,239,0.0,2.0,100,0.00,,,0.00,weatherlink.com 1.10,2013-01-13 23:07:00,
2013-01-13 18:22:00,46.5,47.0,30.04,WSW,239,0.0,2.0,100,0.00,,,0.00,weatherlink.com 1.10,2013-01-13 23:22:00,
2013-01-13 18:36:00,46.5,47.0,30.05,WSW,239,0.0,1.0,100,0.00,,,0.00,weatherlink.com 1.10,2013-01-13 23:36:00,
2013-01-13 18:53:00,46.4,46.0,30.04,WSW,239,0.0,1.0,100,0.00,,,0.00,weatherlink.com 1.10,2013-01-13 23:53:00,
2013-01-13 19:06:00,46.4,46.0,30.03,WSW,239,0.0,2.0,100,0.00,,,0.00,weatherlink.com 1.10,2013-01-14 00:06:00,
2013-01-13 19:22:00,46.4,46.0,30.02,WSW,239,0.0,2.0,100,0.00,,,0.00,weatherlink.com 1.10,2013-01-14 00:22:00,
2013-01-13 19:37:00,46.4,46.0,30.03,WSW,239,0.0,1.0,100,0.00,,,0.00,weatherlink.com 1.10,2013-01-14 00:37:00,
2013-01-13 19:53:00,46.5,47.0,30.02,SSE,165,0.0,1.0,100,0.00,,,0.00,weatherlink.com 1.10,2013-01-14 00:53:00,
2013-01-13 20:08:00,46.5,47.0,30.02,NW,319,0.0,3.0,100,0.00,,,0.00,weatherlink.com 1.10,2013-01-14 01:08:00,
2013-01-13 20:22:00,46.4,46.0,30.02,NW,319,0.0,1.0,100,0.00,,,0.00,weatherlink.com 1.10,2013-01-14 01:22:00,
2013-01-13 20:37:00,46.4,46.0,30.01,NW,319,0.0,1.0,100,0.00,,,0.00,weatherlink.com 1.10,2013-01-14 01:37:00,
2013-01-13 20:53:00,46.3,46.0,30.00,East,81,0.0,1.0,100,0.00,,,0.00,weatherlink.com 1.10,2013-01-14 01:53:00,
2013-01-13 21:08:00,46.4,46.0,30.00,East,81,0.0,1.0,100,0.00,,,0.00,weatherlink.com 1.10,2013-01-14 02:08:00,
2013-01-13 21:23:00,46.3,46.0,30.00,East,81,0.0,1.0,100,0.00,,,0.00,weatherlink.com 1.10,2013-01-14 02:23:00,
2013-01-13 21:37:00,46.3,46.0,29.99,East,81,0.0,0.0,100,0.00,,,0.00,weatherlink.com 1.10,2013-01-14 02:37:00,
2013-01-13 21:53:00,46.3,46.0,30.00,East,81,0.0,0.0,100,0.00,,,0.00,weatherlink.com 1.10,2013-01-14 02:53:00,
2013-01-13 22:08:00,46.3,46.0,30.00,East,81,0.0,1.0,100,0.00,,,0.00,weatherlink.com 1.10,2013-01-14 03:08:00,
2013-01-13 22:23:00,46.4,46.0,30.00,East,81,0.0,2.0,100,0.00,,,0.00,weatherlink.com 1.10,2013-01-14 03:23:00,
2013-01-13 22:38:00,46.3,46.0,29.99,East,81,2.0,3.0,100,0.00,,,0.00,weatherlink.com 1.10,2013-01-14 03:38:00,
2013-01-13 22:54:00,46.6,47.0,29.99,East,81,0.0,2.0,100,0.00,,,0.00,weatherlink.com 1.10,2013-01-14 03:54:00,
2013-01-13 23:09:00,46.5,47.0,29.99,East,81,0.0,2.0,100,0.00,,,0.00,weatherlink.com 1.10,2013-01-14 04:09:00,
2013-01-13 23:23:00,46.7,47.0,29.99,East,81,0.0,2.0,100,0.00,,,0.00,weatherlink.com 1.10,2013-01-14 04:23:00,
2013-01-13 23:38:00,46.7,47.0,29.99,ENE,76,0.0,2.0,100,0.00,,,0.00,weatherlink.com 1.10,2013-01-14 04:38:00,
2013-01-13 23:54:00,46.6,47.0,29.98,ENE,76,1.0,2.0,100,0.00,,,0.00,weatherlink.com 1.10,2013-01-14 04:54:00,